Weather Roundup
Issued by NWS Chicago, IL

Home | Current Version | Previous Version | Text Only | Print | Product List | Glossary Off
Versions: 1 2 3 4 5 6 7 8 9 10 11 12 13 14 15 16 17 18 19 20 21 22 23 24 25 26 27 28 29 30 31 32 33 34 35 36 37 38 39 40 41 42 43 44 45 46 47 48 49 50

000
NZUS59 KLOT 200400
HRRLOT

CHICAGO AREA WEATHER ROUNDUP
NATIONAL WEATHER SERVICE CHICAGO/ROMEOVILLE IL
1100 PM CDT TUE AUG 19 2014

NOTE: "FAIR" INDICATES FEW OR NO CLOUDS BELOW 12,000 FEET WITH NO
SIGNIFICANT WEATHER AND/OR OBSTRUCTIONS TO VISIBILITY.

* THESE STATIONS ARE NOT UNDER NWS QUALITY CONTROL. THEY ALSO MAY NOT
  REPORT WEATHER SUCH AS PRECIPITATION OR FOG.

ILZ005-006-012>014-019>023-200500-
NORTHEAST ILLINOIS

CITY           SKY/WX    TMP DP  RH WIND       PRES   REMARKS
OHARE          PTCLDY    72  62  71 W6        29.77R
MIDWAY         PTCLDY    77  65  66 W6        29.77R
AURORA         CLEAR     66  63  90 W5        29.79R
WAUKEGAN       CLEAR     66  64  93 W3        29.76R
DUPAGE AIRPORT CLEAR     71  63  75 W5        29.78R
WHEELING       CLEAR     73  66  78 W5        29.78R
NORTHERLY IS     N/A     77  65  66 W3          N/A
$$

WIZ051-052-058>065-066-070>072-200500-
SOUTHEAST WISCONSIN

CITY           SKY/WX    TMP DP  RH WIND       PRES   REMARKS
MILWAUKEE      PTCLDY    69  65  86 CALM      29.76S
KENOSHA*       CLEAR     65  65 100 W3        29.77S
RACINE*        CLEAR     69  66  90 W5        29.78S
$$

INZ001>003-010>013-019-020-200500-
NORTHWEST INDIANA

CITY           SKY/WX    TMP DP  RH WIND       PRES   REMARKS
GARY*          NOT AVBL
MICHIGAN CITY* NOT AVBL
RENSSELAER*    NOT AVBL
VALPARAISO     PTCLDY    69  65  86 SW6       29.79R
$$

LMZ740>746-200500-
SOUTHERN LAKE MICHIGAN

STATION/POSITION TIME  SKY/WX   TEMP WIND        PRES    VSBY
                                AIR  DIR/SP/G
                 (UTC)          (F)  (DEG/KT/KT) (MB)    (MI)
HARRISON CRIB    0300            76  260/  9/  9   N/A
BURNHAM HARBOR   0400            77  270/  5/ 11   N/A
CALUMET HARBOR   0300            76  240/  3/  4 1007.0R
BURNS HARBOR     0400            75  220/  7/ 12   N/A
MICHIGAN CITY    0300            75  170/ 13/ 17   N/A
$$

ABBREVIATIONS USED IN REMARKS
   TC - TEMPERATURE IN CELSIUS
  WCI - WIND CHILL INDEX
   HX - HEAT INDEX
  VSB - VISIBILITY
$$



USA.gov is the U.S. government's official web portal to all federal, state and local government web resources and services.